GFSNGP_sfc_thetae_132.txt.gz
Theta_e
302 301 302 302 300 300 299 300 296 299 300 303 307 307 308 309 308 308 309 310 311 312 313 315 317 317 316 316 317 318 316 315 316 317 318 317 317 317 318 317 316 315 314 314
297 301 299 297 300 301 300 301 300 301 300 307 310 306 305 306 308 307 308 309 310 312 313 314 315 316 317 317 316 316 314 313 314 314 314 314 315 315 315 315 315 315 314 313
293 299 297 293 298 299 299 300 300 295 300 305 304 305 306 308 308 308 309 310 310 311 314 315 316 317 316 315 315 314 313 312 312 312 310 310 311 311 311 312 313 311 311 311
294 296 286 297 302 301 299 300 301 301 302 304 305 307 308 310 310 310 310 310 311 311 313 315 316 316 317 314 314 313 311 310 310 309 308 308 308 308 309 308 307 305 305 305
293 292 295 297 299 298 297 297 304 303 304 306 307 308 307 311 311 311 311 311 312 312 313 315 314 315 314 313 312 311 309 308 308 307 306 306 305 304 303 302 302 301 301 299
296 290 287 298 303 305 304 295 306 305 304 304 305 298 302 309 309 309 310 311 310 311 312 314 314 317 312 310 310 308 307 307 307 305 303 301 301 300 300 299 295 294 293 294
293 293 295 303 304 303 291 296 306 306 305 304 301 304 309 309 309 310 309 309 310 311 311 313 315 313 309 308 306 307 305 303 302 301 299 299 297 295 292 291 292 292 292 292
297 292 288 306 302 298 304 308 306 305 305 305 306 306 306 307 307 308 307 308 308 308 309 310 310 308 306 305 304 303 301 300 298 297 296 293 290 290 291 291 291 290 290 290
299 298 308 309 307 309 308 304 305 306 306 305 304 304 304 305 306 306 306 307 305 305 305 306 306 305 301 301 300 298 296 295 294 292 289 289 289 290 289 290 290 289 289 289
301 304 304 305 307 306 306 306 306 306 305 305 303 304 303 303 302 302 302 302 302 302 301 301 302 300 299 297 296 293 291 291 288 287 288 290 289 289 288 289 288 288 288 288
301 303 304 303 305 305 306 306 305 305 304 302 301 300 299 299 299 300 300 301 300 298 297 296 296 295 294 294 292 289 288 286 286 287 286 286 287 287 288 290 290 288 288 289
297 304 303 303 305 306 304 303 303 301 299 300 299 298 299 298 299 299 297 297 295 294 293 292 292 291 292 292 289 286 283 284 284 284 285 285 286 287 290 290 290 290 290 290
303 307 306 306 306 306 303 302 300 299 299 298 299 299 299 298 298 296 295 293 291 291 290 290 290 289 289 288 286 284 283 283 284 284 284 285 285 286 285 289 291 291 290 291
306 306 302 304 301 304 302 300 300 300 300 299 299 299 298 296 295 292 291 291 291 290 289 288 287 286 287 285 284 284 284 285 284 284 285 285 285 286 287 287 287 290 293 293
305 307 304 304 304 302 300 299 297 297 298 297 298 298 296 294 291 291 291 290 290 289 287 286 284 284 285 284 284 283 284 284 285 285 286 287 287 288 289 290 291 291 292 293
304 304 303 301 300 298 297 297 296 296 296 297 297 296 295 293 291 290 290 290 286 285 285 284 283 283 284 284 284 284 284 285 286 286 286 287 289 290 289 289 289 289 290 291
301 300 300 299 298 296 296 297 297 296 296 296 296 296 294 291 290 288 288 289 288 286 285 284 283 284 284 284 284 284 284 285 285 285 285 286 288 287 288 288 288 288 289 291
304 303 301 300 297 296 296 297 297 296 296 296 296 295 292 289 287 287 288 288 287 285 285 285 284 284 284 284 284 284 284 285 285 285 285 285 285 286 286 286 286 286 288 290
302 300 299 299 298 297 297 297 297 297 296 296 295 293 291 289 288 288 287 286 284 283 283 285 286 285 284 285 285 284 285 284 284 284 284 284 285 285 285 285 285 286 287 288
300 299 298 297 298 298 296 297 297 296 296 295 294 293 290 288 288 287 287 285 284 284 285 285 285 284 284 285 285 284 285 284 284 283 283 283 283 283 284 284 284 285 285 287
299 298 297 297 297 298 297 297 296 295 295 295 293 292 291 289 288 287 285 284 285 285 285 285 285 284 285 285 285 285 284 284 283 282 282 282 282 282 282 283 283 284 284 285
299 297 297 297 296 296 297 297 297 296 295 294 293 293 291 289 288 288 288 285 286 285 286 286 285 284 285 286 288 287 286 285 284 283 282 282 282 282 282 282 282 283 283 284
299 298 297 297 296 296 297 296 296 296 294 294 293 292 291 291 289 285 284 288 288 286 287 285 285 284 284 288 288 288 287 286 285 284 284 283 282 282 282 281 281 282 282 283
300 299 298 298 298 297 295 296 296 296 296 295 294 294 292 291 290 291 290 287 286 286 286 285 285 284 286 288 287 287 287 286 286 286 285 284 284 284 284 282 282 282 282 282
300 299 299 298 297 296 297 297 296 296 296 295 295 295 294 294 291 291 290 290 286 287 287 285 284 284 286 287 287 287 287 288 285 285 285 285 284 283 283 283 282 282 282 282
300 299 299 299 298 298 297 297 294 294 295 294 294 293 293 293 292 292 291 289 289 287 287 286 285 285 286 285 286 286 287 288 287 286 284 284 284 283 283 283 283 283 282 282
300 297 299 298 298 298 296 295 295 294 293 294 293 293 292 293 292 291 289 291 290 288 287 286 285 285 285 285 284 285 286 287 286 286 285 284 283 284 284 283 284 283 283 282

GFSNGP_sfc_thetae_138.txt.gz
Theta_e
299 300 299 297 297 296 293 294 289 296 297 301 305 306 308 311 312 310 305 305 304 302 302 303 304 306 306 306 306 306 305 304 303 304 303 304 303 302 303 302 302 303 302 302
295 300 299 297 298 297 296 297 296 297 294 302 306 308 307 310 312 308 303 305 305 305 305 305 305 306 307 305 305 305 304 304 305 305 304 301 300 300 299 298 298 298 298 299
287 298 296 291 296 295 297 297 295 292 297 303 303 303 303 303 303 303 303 303 303 303 303 304 305 305 304 304 305 305 304 305 304 302 300 299 298 297 296 295 295 294 295 296
288 289 283 295 301 300 297 298 298 298 301 301 300 301 301 300 300 301 302 301 301 301 301 302 303 303 304 304 304 302 299 299 299 298 297 296 295 294 293 292 292 292 293 293
287 285 290 295 298 297 295 293 298 299 300 300 300 300 298 303 302 301 300 300 300 301 300 300 301 301 300 298 298 298 297 297 297 295 294 293 292 291 291 289 289 290 291 292
287 285 281 292 299 303 301 288 299 299 298 298 298 291 293 299 301 299 298 298 299 298 297 296 297 296 294 294 294 294 294 294 294 293 292 290 289 288 287 288 289 291 291 292
288 283 291 300 304 305 288 288 299 299 298 297 295 296 297 297 297 296 296 296 297 295 293 293 294 293 291 291 291 293 293 292 291 290 288 288 287 286 287 289 290 290 290 291
289 286 283 304 302 294 296 297 298 297 296 295 295 295 294 294 294 294 293 293 294 292 291 290 292 290 289 288 291 292 290 289 287 286 286 286 285 287 289 289 288 288 288 289
290 291 299 302 299 299 300 297 296 295 295 293 292 292 292 292 292 292 291 291 290 289 289 289 289 289 287 287 289 288 286 285 284 284 284 285 287 286 286 287 286 286 287 288
294 297 297 298 299 299 298 295 294 294 292 293 290 292 291 290 290 289 289 289 288 287 287 287 288 288 286 287 287 285 283 282 282 282 284 286 286 286 286 285 286 286 286 287
293 296 297 298 297 296 295 295 294 295 294 293 292 291 289 289 289 288 288 288 288 287 287 287 286 286 286 285 285 282 281 281 283 284 284 284 285 286 286 287 287 286 287 288
289 296 295 294 296 296 294 293 294 293 292 293 292 290 289 288 288 288 287 287 287 286 285 285 284 284 284 284 283 281 282 283 283 284 284 285 284 285 288 289 289 289 289 289
294 299 297 296 296 296 294 294 294 293 293 291 291 290 289 287 288 289 287 287 286 284 284 283 283 283 283 284 283 283 282 283 283 284 284 284 284 285 284 288 291 291 290 290
299 297 293 293 291 295 295 295 296 294 293 292 290 290 288 287 287 286 287 286 284 283 283 282 283 282 284 285 284 283 283 285 284 284 285 285 285 286 286 287 286 287 290 290
298 297 294 294 294 294 294 294 292 291 291 289 289 288 287 285 286 286 287 286 283 282 283 283 283 284 285 285 284 284 284 284 285 285 285 286 286 285 286 286 286 286 287 288
296 294 294 293 293 293 293 292 291 290 290 288 287 287 286 287 285 285 284 283 280 282 283 283 283 284 285 285 285 284 284 285 285 285 284 284 284 284 284 285 285 285 285 286
292 290 291 291 292 292 291 292 292 291 289 288 287 286 286 286 285 283 283 282 282 281 283 283 283 285 286 285 285 284 284 285 284 284 284 284 283 283 283 283 283 283 284 286
295 293 293 293 292 292 292 292 292 291 289 289 288 286 285 285 282 284 281 281 283 280 282 284 285 285 285 286 286 286 285 285 284 284 284 284 283 284 283 282 282 282 283 285
294 293 294 294 294 292 291 291 291 291 290 288 287 285 284 285 282 281 282 282 282 281 283 284 287 285 285 286 287 287 286 286 285 285 284 284 283 284 283 283 282 282 282 283
294 295 295 294 295 293 291 292 292 290 289 288 286 285 283 283 286 282 282 278 281 283 283 284 285 284 285 286 287 287 285 285 285 285 285 284 283 283 283 283 283 282 282 282
293 294 294 294 293 294 292 292 291 290 290 289 286 285 283 282 282 283 278 280 281 282 283 284 284 284 285 285 286 287 285 284 284 283 283 283 283 283 283 283 283 283 282 282
293 293 293 293 292 291 291 291 291 291 289 289 288 287 284 281 281 277 277 280 278 280 283 283 283 283 284 284 285 286 283 283 283 282 282 282 282 282 282 282 282 283 283 282
293 293 293 292 291 290 291 291 291 291 290 289 288 286 282 277 278 275 276 281 278 281 280 283 283 283 283 284 283 283 284 283 282 282 282 281 281 281 281 281 282 282 282 282
292 292 292 292 292 291 289 290 290 290 290 290 288 287 285 280 280 279 284 282 282 281 282 282 283 282 283 283 282 282 283 281 281 282 281 281 281 281 281 281 281 282 282 282
293 293 291 291 289 289 289 289 289 289 289 288 288 288 288 285 280 281 281 281 282 281 281 282 282 282 283 282 282 282 282 281 280 281 280 280 279 280 280 281 281 281 282 282
291 291 291 292 290 289 288 287 286 287 287 288 288 287 287 287 286 284 282 282 280 281 280 280 280 281 282 281 282 281 282 281 281 280 279 279 279 279 280 280 281 281 281 282
292 291 290 289 289 290 288 287 286 287 288 287 287 289 288 288 287 285 283 280 279 278 278 280 280 280 280 279 280 280 280 280 281 280 280 279 279 279 279 280 280 281 281 281

GFSNGP_sfc_thetae_141.txt.gz
Theta_e
296 298 298 296 295 294 292 294 289 293 295 300 304 306 308 310 311 306 302 303 302 300 301 302 303 304 305 305 305 305 304 303 303 302 301 300 300 299 299 298 298 298 299 299
293 297 297 294 296 295 295 295 296 297 295 304 308 309 309 311 309 304 303 304 303 303 303 303 304 305 305 304 303 303 302 301 301 300 299 298 297 296 295 295 295 295 295 295
286 296 294 289 294 292 294 295 296 292 296 304 305 305 305 307 308 305 304 303 303 303 301 301 302 303 301 301 301 299 298 299 298 297 296 295 295 294 292 291 291 291 291 292
286 288 282 293 299 298 294 295 297 300 301 301 298 298 299 300 301 301 301 299 297 297 296 297 298 298 298 298 298 297 296 296 295 294 293 292 291 291 290 289 289 288 288 289
283 282 288 293 297 297 293 291 297 297 297 298 298 299 296 300 298 296 296 296 294 294 294 294 294 294 294 294 294 294 293 292 293 292 290 290 289 288 287 286 286 287 288 291
284 282 280 290 298 300 298 286 298 298 297 296 295 290 290 293 294 294 294 294 292 292 292 291 291 291 290 290 290 290 291 291 291 290 288 286 286 285 285 285 286 289 290 292
284 281 289 298 303 304 286 288 298 298 295 294 292 292 292 293 292 292 292 293 292 290 289 289 290 289 288 287 287 290 290 289 288 287 285 285 284 284 285 287 289 289 289 290
285 283 283 303 301 293 295 297 297 295 293 291 291 292 292 292 290 290 289 289 290 288 287 287 289 287 285 285 288 288 287 286 285 284 284 284 282 286 286 285 287 287 287 287
288 288 295 298 296 297 298 295 294 292 291 292 291 290 290 289 289 289 288 288 287 286 286 286 286 286 284 284 285 286 284 282 281 282 282 283 283 285 285 286 286 286 286 287
291 294 294 295 296 296 295 293 293 293 292 292 289 289 288 287 287 286 287 286 286 285 285 284 285 285 284 284 284 283 281 281 281 282 284 285 286 286 285 285 285 286 286 286
291 293 293 292 293 293 293 293 293 293 292 290 289 287 287 286 286 285 285 285 285 283 283 282 283 283 283 283 283 281 282 283 283 284 284 285 286 286 286 287 287 286 286 287
288 294 292 290 292 294 293 292 292 291 290 290 289 287 287 285 285 285 284 284 282 282 282 281 282 282 283 283 283 282 282 283 283 284 284 285 285 285 288 289 290 290 289 289
294 295 294 293 294 294 293 292 292 291 290 288 288 287 286 284 285 287 284 282 282 282 282 282 283 283 284 285 285 284 283 283 284 284 284 284 285 285 284 287 290 290 289 289
295 293 290 291 290 293 294 293 293 291 290 289 288 287 286 285 285 284 282 282 282 282 282 283 284 284 286 286 285 285 284 286 284 285 285 285 285 285 285 284 284 286 288 289
294 293 292 293 293 292 293 291 289 288 287 287 287 286 285 283 283 282 282 283 281 281 283 283 283 283 286 286 285 285 284 284 285 285 285 285 284 284 284 284 284 284 285 287
292 293 292 291 291 291 291 290 288 287 287 286 285 285 284 283 283 282 281 281 279 278 283 283 283 284 286 286 285 285 285 286 285 284 284 284 284 283 283 283 283 283 283 283
290 289 290 290 290 290 290 290 289 288 287 285 285 285 284 283 283 281 281 280 283 279 283 284 283 285 286 286 285 286 286 285 284 285 284 284 284 283 283 283 282 282 282 284
294 293 292 292 291 291 291 291 289 288 286 286 286 285 283 281 280 280 281 283 284 283 283 283 285 285 285 286 286 286 285 286 286 285 285 284 284 284 284 283 283 282 282 283
293 293 293 293 292 291 291 289 288 288 287 287 285 283 283 282 281 280 283 283 282 281 282 283 286 284 284 286 287 286 285 285 284 284 284 284 284 283 283 283 282 283 283 282
293 294 294 292 292 291 290 290 289 287 286 285 285 283 282 282 282 280 278 281 281 282 282 283 284 283 284 285 286 285 284 284 283 282 282 282 282 282 282 283 282 282 283 282
293 293 292 292 291 291 291 290 289 287 287 286 284 283 281 281 282 280 281 280 280 277 279 283 283 282 284 284 285 284 283 283 282 281 281 281 281 281 281 281 282 282 282 282
292 292 291 291 290 289 289 289 289 289 287 286 286 284 281 280 279 276 277 281 275 277 279 280 282 281 282 282 283 283 282 282 282 281 280 280 280 280 280 281 281 281 282 282
292 292 292 291 289 289 289 289 289 289 288 287 286 283 279 274 278 277 277 278 274 278 277 279 281 281 282 283 282 282 281 281 280 280 280 279 279 280 280 280 280 281 281 281
291 291 290 290 289 289 287 288 288 289 288 288 287 285 282 278 278 282 284 278 280 279 279 280 281 281 282 282 281 281 281 280 280 279 279 279 279 279 280 280 280 280 281 281
291 290 290 289 288 288 287 288 287 287 287 286 286 286 284 280 277 277 278 278 280 279 279 280 281 281 282 281 280 280 280 280 280 279 279 278 278 278 279 279 280 280 280 281
291 290 290 290 289 287 287 287 286 286 286 285 285 285 286 284 284 281 279 279 278 279 277 278 278 280 280 279 279 279 278 278 278 279 279 279 278 278 278 279 279 280 280 280
289 289 288 287 287 287 287 287 286 285 286 287 287 286 286 286 285 283 280 278 277 276 275 275 275 277 277 278 279 278 278 278 278 278 278 279 278 278 278 278 279 280 280 280

GFSNGP_sfc_thetae_144.txt.gz
Theta_e
293 296 295 293 293 293 291 290 288 292 293 297 302 304 306 304 303 303 303 304 305 303 305 303 304 305 306 306 306 305 303 301 300 300 300 300 299 299 299 298 298 298 298 298
292 296 296 292 294 294 294 295 295 295 294 303 307 309 307 303 302 301 302 302 303 303 303 303 304 303 302 302 300 300 299 298 299 298 298 297 296 296 296 295 294 295 294 294
285 293 293 290 292 293 293 294 296 292 297 305 304 305 305 302 302 302 302 301 299 298 297 297 297 298 297 298 298 297 297 297 296 295 294 294 294 293 293 292 292 291 291 291
285 287 281 291 298 298 294 295 298 300 300 299 297 298 298 301 304 300 300 298 296 294 293 293 294 295 295 296 296 295 294 293 293 293 292 291 291 290 290 289 288 288 288 290
283 282 288 292 295 295 293 291 297 296 297 297 297 296 292 294 296 296 295 294 292 292 291 291 291 292 292 292 292 292 292 291 291 290 289 288 287 287 287 286 286 287 288 290
282 282 280 288 297 299 297 287 297 298 296 296 296 290 287 292 293 291 291 291 290 291 290 289 289 290 289 289 289 289 290 289 289 288 287 286 285 285 285 286 287 289 289 291
282 279 287 295 300 302 288 288 297 297 295 294 290 290 289 291 290 291 291 290 290 289 287 288 289 288 286 286 286 288 288 287 287 286 285 285 285 285 286 288 288 287 289 290
283 281 281 300 299 292 293 295 296 293 291 290 290 290 290 290 289 289 288 288 288 287 286 287 287 286 284 283 285 286 286 285 284 284 284 284 284 284 286 286 287 287 288 289
287 287 293 296 295 297 299 295 291 291 292 291 290 289 288 287 287 287 287 287 286 285 285 285 285 285 282 283 284 284 283 282 283 284 284 284 284 286 286 287 286 286 287 288
289 291 291 293 294 294 294 291 292 292 291 291 288 288 287 286 285 285 286 285 285 283 283 282 283 283 283 284 284 283 282 283 284 284 286 286 287 287 286 286 286 286 286 287
288 290 292 290 291 292 292 293 292 292 291 289 288 287 286 285 284 284 284 284 283 282 282 282 283 284 284 284 284 283 283 284 284 285 285 286 286 287 287 288 288 287 287 288
289 294 292 288 291 294 292 291 291 290 288 288 288 286 285 284 284 284 282 282 282 282 282 283 284 284 285 286 285 285 284 284 285 285 285 285 285 286 289 289 289 289 289 289
295 294 293 293 293 293 291 290 290 289 288 286 287 286 285 284 285 285 282 282 281 282 283 284 284 284 286 286 286 285 284 285 285 285 285 285 285 284 283 286 289 289 289 288
294 293 289 291 289 292 292 291 291 289 288 287 286 286 285 284 283 282 281 282 282 283 283 284 284 283 286 287 286 286 285 286 285 285 285 285 285 284 284 283 283 284 287 287
292 293 292 292 291 290 290 289 287 286 286 285 286 285 285 282 281 281 282 282 281 283 283 283 283 284 286 287 286 286 286 286 286 286 285 286 285 285 285 284 284 283 284 285
292 292 292 290 290 290 289 288 286 285 285 285 284 284 284 283 282 281 282 283 281 280 282 282 283 285 286 286 286 286 286 287 287 286 285 285 285 284 284 284 283 283 283 283
289 288 290 289 289 289 288 288 287 286 286 285 284 284 283 283 282 282 283 284 284 282 283 282 283 285 286 286 286 285 285 285 284 285 285 285 284 284 284 283 283 283 283 284
294 292 292 292 290 290 289 289 288 287 286 286 285 284 282 281 280 281 283 284 284 283 283 283 285 284 284 286 287 286 285 285 284 283 284 283 283 284 283 283 283 282 283 284
293 292 292 292 292 291 289 288 287 287 287 286 285 283 282 282 281 281 282 282 281 280 282 283 284 283 283 285 286 285 285 284 283 283 283 282 282 282 282 282 282 282 283 283
292 293 292 292 292 290 288 288 287 286 286 285 284 283 282 282 281 280 282 281 281 281 282 283 283 283 282 284 285 285 284 283 282 282 281 281 282 281 282 281 281 282 282 282
293 293 291 291 290 290 289 288 287 285 285 285 283 282 282 282 281 281 281 280 280 278 281 283 283 281 282 282 284 283 282 282 281 280 280 280 280 281 281 281 281 281 281 282
292 291 290 290 289 288 289 288 288 287 286 285 285 283 282 281 280 279 282 281 279 276 279 281 280 279 282 281 283 283 281 281 280 280 279 279 279 279 280 280 280 281 281 281
291 291 290 289 288 288 288 288 288 288 286 286 284 283 281 278 278 276 278 281 278 279 279 280 280 280 281 283 282 282 281 280 280 279 279 279 279 279 279 279 280 280 281 281
291 290 290 289 289 288 286 287 288 288 288 287 285 283 282 280 281 283 284 278 279 279 280 281 281 281 281 281 281 281 280 280 280 280 279 279 279 279 279 279 279 280 281 281
291 290 289 288 287 287 287 288 287 287 287 286 285 285 283 281 280 280 281 281 280 280 280 280 280 280 281 280 280 279 279 279 279 279 280 279 279 278 279 279 279 280 280 280
289 289 289 289 289 287 287 287 286 286 286 285 285 285 285 284 285 283 282 281 281 280 279 279 279 280 280 279 279 279 279 279 278 278 279 279 279 279 278 278 279 279 280 280
288 288 287 287 287 287 287 287 286 286 287 287 286 286 286 285 285 283 282 282 281 279 279 278 277 278 277 277 278 278 278 278 278 278 278 278 279 279 278 278 278 278 279 279

GFSNGP_sfc_thetae_147.txt.gz
Theta_e
299 299 300 299 295 296 295 296 293 295 297 304 308 308 306 309 312 314 313 316 316 316 316 314 314 314 313 313 313 313 311 310 309 308 307 307 306 306 305 305 304 304 303 303
297 299 299 297 298 297 297 298 300 300 300 308 311 307 307 309 309 307 309 308 308 309 309 309 309 309 309 308 308 309 307 305 305 305 304 303 303 302 302 302 301 300 300 299
293 298 298 295 298 299 300 301 302 298 304 310 307 304 303 304 307 304 305 305 304 303 303 303 304 305 304 304 305 304 303 302 301 301 300 300 299 299 299 298 298 297 298 298
295 296 287 298 302 303 301 300 302 305 308 309 301 299 301 305 303 302 301 299 300 299 299 299 300 300 301 300 301 300 300 299 298 297 297 297 297 296 296 296 295 296 296 297
293 292 294 297 300 301 301 298 303 303 302 301 302 301 296 300 301 299 298 296 293 294 295 295 296 297 298 298 297 297 296 296 295 294 294 294 294 294 294 294 294 294 295 297
293 290 287 299 303 305 304 296 305 304 303 303 306 301 295 297 297 297 296 297 296 296 296 295 294 295 295 294 293 293 292 293 293 293 292 292 292 293 294 294 293 295 296 295
292 293 294 300 303 305 295 298 306 305 305 305 302 303 297 297 295 296 295 295 295 295 293 292 292 293 291 291 290 291 291 292 291 291 291 292 292 293 293 293 290 293 294 297
294 292 290 304 303 298 303 306 305 304 302 298 297 296 295 295 295 294 293 293 293 292 291 291 291 291 290 289 290 291 290 290 290 290 290 291 291 292 292 290 291 292 293 295
297 297 299 301 303 304 306 302 300 299 299 298 295 294 294 293 293 292 291 291 291 290 290 290 290 290 288 288 289 287 287 288 289 289 290 290 291 289 289 290 289 291 291 291
297 295 295 297 300 303 304 301 300 299 298 297 294 294 292 291 291 290 290 289 289 289 288 288 288 288 288 287 287 287 287 288 289 289 289 289 290 290 289 289 288 288 288 288
291 293 295 295 298 299 299 299 298 298 298 296 295 293 292 291 290 289 288 289 289 288 287 287 288 288 288 288 287 287 288 287 287 288 288 287 288 288 288 290 289 287 288 289
294 297 299 294 297 299 297 296 296 295 294 295 294 291 291 290 289 289 288 289 288 287 287 286 287 287 287 288 287 287 286 286 287 287 287 288 287 287 289 289 289 289 289 288
297 297 296 296 298 299 296 296 296 295 294 292 292 292 291 290 289 287 288 288 287 285 286 286 286 286 287 288 288 288 287 286 286 286 286 287 286 286 285 288 289 288 287 287
297 297 294 296 293 296 296 295 295 294 293 292 291 292 290 288 288 288 287 287 287 286 285 285 285 286 287 288 287 288 288 288 287 287 287 287 286 286 286 286 287 287 288 287
297 298 296 295 295 294 294 293 291 290 290 290 291 289 288 287 287 287 287 287 286 285 285 285 285 286 287 287 286 286 287 287 288 288 287 288 288 286 286 285 286 285 287 287
296 295 295 294 293 293 293 292 290 289 290 289 289 289 288 288 287 287 286 285 284 283 284 284 285 286 286 288 286 287 287 286 286 287 287 287 287 285 286 284 284 285 285 285
293 292 293 292 292 292 292 292 291 290 290 289 289 289 288 288 287 287 286 286 285 284 284 284 284 286 286 288 288 287 287 287 285 287 286 286 285 285 286 285 285 284 285 286
299 297 297 295 294 293 292 292 291 290 289 289 289 288 287 287 286 286 286 285 285 284 284 284 285 285 285 287 289 287 287 286 287 286 286 284 284 285 285 285 284 284 284 285
298 297 296 296 295 294 293 291 291 290 290 289 288 287 287 287 287 287 287 284 283 282 283 285 284 284 285 286 288 288 287 286 286 285 284 284 284 284 285 285 285 283 284 285
296 296 296 295 295 293 291 291 290 289 289 289 288 288 287 286 286 285 286 283 282 283 283 285 285 286 287 287 286 288 286 285 284 283 283 283 283 283 283 283 284 284 285 284
295 295 294 294 293 293 292 291 290 289 289 289 288 288 287 286 285 286 285 285 283 283 284 284 286 287 287 286 287 287 285 284 283 282 282 282 282 283 283 283 283 283 283 284
295 295 294 294 293 292 292 292 291 289 288 288 288 288 287 286 284 283 284 283 285 283 286 287 287 284 286 284 287 286 285 284 283 282 281 281 281 281 282 282 282 282 282 283
296 296 295 294 293 293 293 292 291 290 289 288 288 288 287 286 286 285 284 284 287 284 287 287 283 282 283 287 286 285 284 283 283 282 282 281 281 281 281 281 281 282 282 282
296 296 295 295 294 293 292 293 292 292 291 290 289 289 288 287 285 285 286 284 283 284 285 284 283 282 283 285 284 284 284 283 282 281 282 281 282 282 281 281 281 281 282 282
296 295 294 294 293 293 294 294 293 292 291 290 290 290 290 290 290 286 287 287 283 285 285 282 282 282 285 284 284 283 283 282 281 281 281 281 281 280 281 281 280 280 281 281
296 295 295 295 295 295 294 294 293 293 292 291 290 291 290 290 289 289 288 286 286 284 285 284 283 284 283 283 282 282 283 283 282 281 281 280 280 280 280 280 280 280 280 280
297 294 295 295 296 296 295 295 294 293 293 293 292 292 291 291 289 288 286 287 286 285 284 284 283 281 282 282 282 282 282 282 280 280 280 280 280 280 280 280 280 280 280 281